Lid_Strength_Index
3 3 3 3 2 2 2 1 1 1 1 1 1 1 1 2 1 1 1 1 1 1 1 1 1 1 1 1 1 2 2 2
3 3 3 2 2 2 2 2 1 1 1 1 1 2 1 1 1 1 1 1 1 1 1 1 1 1 1 1 1 2 1 1
4 4 3 3 2 2 2 2 1 1 1 2 2 1 1 1 1 1 1 1 1 1 1 1 1 1 1 1 1 2 2 2
4 4 3 3 3 2 2 2 2 1 2 2 2 1 1 1 1 1 1 1 1 1 1 1 2 1 6 7 3 2 2 2
4 4 3 3 3 2 2 2 1 2 2 2 2 2 2 1 1 1 2 2 2 2 2 2 2 2 11 9 7 1 2 2
4 3 3 3 2 2 2 2 2 2 2 2 2 2 2 1 1 2 2 2 2 2 2 2 2 2 12 11 8 1 1 1
3 3 3 2 2 2 2 2 2 2 2 2 2 2 2 2 2 2 2 2 2 2 2 2 2 4 12 11 4 2 2 2
4 3 3 3 2 2 3 3 3 3 2 2 2 1 2 2 2 2 2 2 2 2 2 2 4 3 13 11 4 2 2 2
3 3 3 3 2 2 3 3 3 2 2 2 2 2 2 2 2 2 2 2 2 2 2 2 2 4 8 13 9 2 2 2
4 5 5 4 3 3 3 4 3 2 2 2 2 2 2 2 2 2 2 2 3 3 3 3 2 2 10 12 9 8 4 2
5 5 6 6 5 5 5 4 3 2 2 2 2 2 2 2 2 2 3 3 3 3 3 4 3 4 6 12 12 9 7 2
7 6 6 6 5 5 5 4 3 3 3 3 2 3 2 2 2 2 3 3 3 4 4 4 3 3 3 4 5 5 8 6
9 9 9 8 6 6 5 4 4 3 3 3 3 3 3 3 2 2 3 2 3 3 3 3 3 3 3 4 3 2 1 4
11 11 11 10 8 7 5 4 3 3 3 3 3 3 3 3 4 7 12 10 11 10 8 4 5 7 10 11 11 11 10 9
10 10 11 11 9 8 6 4 3 3 3 3 3 3 3 3 3 4 7 10 13 14 12 10 9 9 12 12 11 11 12 7
7 6 8 9 8 7 5 3 3 3 3 6 3 3 3 3 3 3 3 4 5 6 12 11 13 13 12 12 11 8 3 3
5 7 7 7 7 6 5 4 3 3 3 3 3 3 3 3 3 3 3 4 5 6 6 9 11 13 12 11 9 2 3 3
6 7 6 6 7 5 4 3 3 3 3 8 5 3 3 3 3 3 4 4 4 4 5 5 4 4 3 2 2 2 2 2
4 4 4 3 3 3 3 2 4 3 3 3 6 3 3 3 3 3 3 3 4 4 4 5 11 2 3 3 2 2 2 2
9 8 9 6 4 2 2 2 2 2 3 3 3 3 3 3 3 3 3 3 3 4 5 7 11 4 4 4 3 4 3 2